Petersburg, WV

6:44 AM EDT on August 23, 2017 (GMT -0400)
Petersburg

Weather History for KW99 - March, 2014

Change the Weather History Date:

Tuesday, March 25, 2014

  Actual Average (KEKN) Record (KEKN)
Temperature  
Mean Temperature 36 °F -  
Max Temperature 40 °F 51 °F 86 °F (1929)
Min Temperature 31 °F 27 °F 0 °F (1971)
Degree Days  
Heating Degree Days 30    
Moisture  
Dew Point 29 °F    
Average Humidity 80    
Maximum Humidity 98    
Minimum Humidity 47    
Precipitation  
Precipitation 0.01 in - - ()
Sea Level Pressure  
Sea Level Pressure 29.96 in    
Wind  
Wind Speed 1 mph (NNE)    
Max Wind Speed 16 mph    
Max Gust Speed 24 mph    
Visibility 6 miles    
Events Rain , Snow    
Averages and records for this station are not official NWS values.
T = Trace of Precipitation, MM = Missing Value Source: NWS Daily Summary

Daily Weather History Graph

Daily Weather History Graph

Search for Another Location

Airport or City:

Trip Planner

Search our weather history database for the weather conditions in past years. The results will help you decide how hot, cold, wet, or windy it might be!

Date:

Astronomy

Mar. 25, 2014 Rise Set
Actual Time 7:12 AM EDT 7:33 PM EDT
Civil Twilight 6:45 AM EDT 8:00 PM EDT
Nautical Twilight 6:14 AM EDT 8:31 PM EDT
Astronomical Twilight 5:42 AM EDT 9:03 PM EDT
Moon 3:29 AM EDT (3/25) 2:04 PM EDT (3/25)
Length of Visible Light 13h 14m
Length of Day
12h 21m
Waning Crescent, 32% of the Moon is Illuminated
Mar 25
Waning Crescent
Mar 30
New
Apr 7
First Quarter
Apr 15
Full
Apr 22
Last Quarter

Hourly Weather History & Observations

Time (EDT) Temp. Windchill Dew Point Humidity Pressure Visibility Wind Dir Wind Speed Gust Speed Precip Events Conditions
12:35 AM 35.4 °F - 18.7 °F 51% 30.09 in 10.0 mi Calm Calm - N/A   Mostly Cloudy
12:55 AM 35.4 °F - 16.9 °F 47% 30.09 in 10.0 mi Calm Calm - N/A   Mostly Cloudy
1:15 AM - - - N/A% 30.08 in 10.0 mi Calm Calm - N/A   Mostly Cloudy
1:35 AM 34.9 °F - 19.2 °F 53% 30.08 in 10.0 mi Calm Calm - N/A   Overcast
1:55 AM 34.5 °F - 20.8 °F 57% 30.07 in 10.0 mi Calm Calm - N/A   Overcast
2:15 AM 35.1 °F - 21.4 °F 57% 30.06 in 10.0 mi Calm Calm - N/A   Overcast
2:35 AM 34.9 °F - 21.6 °F 58% 30.06 in 10.0 mi Calm Calm - N/A   Overcast
2:55 AM 34.7 °F - 23.4 °F 63% 30.05 in 10.0 mi Calm Calm - N/A   Overcast
3:15 AM 34.7 °F - 22.5 °F 61% 30.04 in 10.0 mi Calm Calm - N/A   Overcast
3:35 AM 34.9 °F - 21.6 °F 58% 30.03 in 10.0 mi Calm Calm - N/A   Overcast
3:55 AM 34.9 °F - 23.0 °F 62% 30.02 in 10.0 mi Calm Calm - N/A   Overcast
4:15 AM 34.9 °F - 23.4 °F 63% 30.02 in 10.0 mi Calm Calm - N/A   Overcast
4:35 AM 34.7 °F - 23.5 °F 64% 30.01 in 10.0 mi Calm Calm - N/A   Overcast
4:55 AM 34.9 °F - 23.2 °F 62% 30.01 in 10.0 mi Calm Calm - N/A   Overcast
5:15 AM 34.7 °F - 25.5 °F 69% 30.02 in 10.0 mi Calm Calm - N/A   Overcast
5:35 AM 34.9 °F - 24.4 °F 66% 30.02 in 10.0 mi Calm Calm - N/A   Overcast
5:55 AM 34.9 °F - 25.2 °F 68% 30.01 in 10.0 mi Calm Calm - N/A   Overcast
6:15 AM 34.9 °F - 25.2 °F 68% 30.02 in 10.0 mi Calm Calm - N/A   Overcast
6:35 AM 35.2 °F - 28.2 °F 76% 30.01 in 10.0 mi Calm Calm - N/A   Overcast
6:55 AM 34.9 °F - 29.1 °F 79% 30.00 in 7.0 mi Calm Calm - N/A Snow Light Snow
7:15 AM 34.2 °F - 29.3 °F 82% 30.01 in 5.0 mi Calm Calm - N/A Snow Light Snow
7:35 AM 33.1 °F 30.0 °F 29.1 °F 85% 30.00 in 2.5 mi NE 3.5 mph - N/A Snow Light Snow
7:55 AM 32.5 °F 29.3 °F 28.6 °F 85% 30.01 in 4.0 mi ESE 3.5 mph - N/A Snow Light Snow
8:15 AM 32.7 °F 29.6 °F 29.1 °F 87% - 2.0 mi SE 3.5 mph - N/A Snow Light Snow
8:35 AM 32.9 °F - 30.2 °F 90% 30.01 in 1.5 mi Calm Calm - N/A Snow Light Snow
8:55 AM 32.9 °F 29.8 °F 30.9 °F 92% 30.00 in 1.2 mi SE 3.5 mph - N/A Snow Light Snow
9:15 AM 33.3 °F 30.2 °F 30.9 °F 91% 30.00 in 1.8 mi ESE 3.5 mph - N/A Snow Light Snow
9:35 AM 33.4 °F - 31.1 °F 91% 30.00 in 2.5 mi Calm Calm - N/A Snow Light Snow
9:55 AM 33.6 °F - 30.4 °F 88% 29.99 in 4.0 mi Calm Calm - N/A   Overcast
10:15 AM 33.3 °F - 30.4 °F 89% 29.99 in 3.0 mi Calm Calm - N/A Snow Light Snow
10:35 AM 32.7 °F - 29.1 °F 87% 29.99 in 2.0 mi Calm Calm - N/A Snow Light Snow
10:55 AM 32.4 °F 29.1 °F 30.0 °F 91% 29.99 in 1.5 mi NNW 3.5 mph - N/A Snow Light Snow
11:15 AM 33.3 °F 30.2 °F 30.6 °F 90% 29.98 in 2.0 mi NNW 3.5 mph - N/A   Overcast
11:35 AM 33.4 °F 30.4 °F 30.7 °F 90% 29.97 in 1.2 mi NNW 3.5 mph - N/A Snow Light Snow
11:55 AM 34.0 °F 29.8 °F 31.5 °F 90% 29.97 in 1.0 mi NNW 4.6 mph - N/A Snow Light Snow
12:15 PM 35.8 °F 31.9 °F 32.2 °F 87% 29.96 in 1.8 mi NNW 4.6 mph - 0.01 in Snow Light Snow
12:35 PM 36.0 °F 33.3 °F 32.2 °F 86% 29.95 in 1.5 mi North 3.5 mph - 0.01 in   Overcast
12:55 PM 36.9 °F 33.1 °F 32.2 °F 83% 29.94 in 2.5 mi NNE 4.6 mph - 0.01 in Snow Light Snow
1:15 PM 37.6 °F 35.1 °F 33.3 °F 84% 29.92 in 2.5 mi North 3.5 mph - N/A   Overcast
1:35 PM 37.0 °F - 32.0 °F 82% 29.91 in 3.0 mi Calm Calm - N/A Snow Light Snow
1:55 PM 37.2 °F 33.6 °F 32.0 °F 81% 29.90 in 2.5 mi NNE 4.6 mph - N/A   Overcast
2:15 PM 37.8 °F 33.3 °F 32.4 °F 81% 29.89 in 3.0 mi NNE 5.8 mph - N/A Rain Light Rain
2:35 PM 37.6 °F 34.0 °F 32.4 °F 81% - 4.0 mi NNE 4.6 mph - N/A Rain Light Rain
2:55 PM 38.3 °F 34.8 °F 30.7 °F 74% 29.87 in 10.0 mi NNE 4.6 mph - N/A   Overcast
3:15 PM 39.4 °F 37.2 °F 31.5 °F 73% 29.86 in 10.0 mi East 3.5 mph - N/A   Mostly Cloudy
3:35 PM 39.7 °F 36.5 °F 31.3 °F 72% 29.85 in 10.0 mi ESE 4.6 mph - N/A   Mostly Cloudy
3:55 PM 39.6 °F 34.7 °F 31.6 °F 73% 29.85 in 10.0 mi SSE 6.9 mph - N/A   Overcast
4:15 PM 40.5 °F 36.5 °F 30.9 °F 69% 29.84 in 10.0 mi ESE 5.8 mph - N/A   Overcast
4:35 PM 39.7 °F - 28.9 °F 65% 29.85 in 10.0 mi Calm Calm - N/A   Overcast
4:55 PM 39.6 °F 34.0 °F 31.1 °F 72% 29.85 in 10.0 mi NW 8.1 mph - N/A   Overcast
5:15 PM 37.9 °F 32.1 °F 33.1 °F 83% 29.86 in 2.0 mi NW 8.1 mph - N/A Snow Light Snow
5:35 PM 36.5 °F - 33.8 °F 90% 29.87 in 0.5 mi Calm Calm - N/A Snow Light Snow
5:55 PM 36.3 °F - 33.8 °F 91% 29.87 in 1.0 mi Calm Calm - N/A Snow Light Snow
6:15 PM 36.5 °F - 33.8 °F 90% 29.88 in 0.8 mi Calm Calm - N/A Snow Light Snow
6:35 PM 36.5 °F - 34.2 °F 91% 29.89 in 0.8 mi Calm Calm - N/A Snow Light Snow
6:55 PM 36.9 °F - 34.9 °F 93% 29.89 in 1.0 mi Calm Calm - N/A Snow Light Snow
7:15 PM 36.5 °F - 34.2 °F 91% 29.89 in 10.0 mi Calm Calm - N/A   Mostly Cloudy
7:35 PM 36.5 °F - 34.0 °F 91% 29.90 in 10.0 mi Calm Calm - N/A   Mostly Cloudy
7:55 PM 36.1 °F - 33.4 °F 90% 29.90 in 10.0 mi Calm Calm - N/A   Scattered Clouds
8:15 PM 36.1 °F - 33.8 °F 91% 29.90 in 10.0 mi Calm Calm - N/A   Clear
8:35 PM 34.9 °F - 32.9 °F 92% 29.91 in 10.0 mi Calm Calm - N/A   Mostly Cloudy
8:55 PM 34.9 °F - 33.3 °F 94% 29.91 in 10.0 mi Calm Calm - N/A   Mostly Cloudy
9:15 PM 34.2 °F - 32.5 °F 94% 29.92 in 7.0 mi Calm Calm - N/A   Mostly Cloudy
9:35 PM 35.2 °F 31.2 °F 32.4 °F 89% 29.92 in 1.5 mi North 4.6 mph - N/A Snow Light Snow
9:55 PM 33.8 °F - 32.0 °F 93% 29.92 in 10.0 mi Calm Calm - N/A   Scattered Clouds
10:15 PM 32.9 °F - 31.3 °F 94% 29.92 in 7.0 mi Calm Calm - N/A   Clear
10:35 PM 31.6 °F - 30.2 °F 94% 29.92 in 5.0 mi Calm Calm - N/A   Clear
10:55 PM 32.4 °F - 31.6 °F 97% 29.92 in 5.0 mi Calm Calm - N/A   Scattered Clouds
11:15 PM 32.4 °F 27.9 °F 31.8 °F 98% 29.93 in 7.0 mi North 4.6 mph - N/A   Overcast
11:35 PM 33.8 °F - 31.5 °F 91% 29.94 in 10.0 mi Calm Calm - N/A   Overcast
11:55 PM 36.0 °F 26.3 °F 27.3 °F 71% 29.94 in 10.0 mi WNW 16.1 mph 24.2 mph N/A   Overcast